QPF
0.01 0.01 0.01 0.02 0.02 0.02 0.02 0.02 0.02 0.02 0.02 0.02 0.02 0.01 0.00 0.00 0.00 0.00 0.00 0.00 0.00 0.00 0.00 0.00 0.00 0.00 0.00 0.00 0.00 0.00 0.00 0.00 0.00 0.00 0.00 0.01 0.01 0.01 0.01 0.01 0.01 0.01 0.02
0.01 0.01 0.01 0.01 0.01 0.01 0.02 0.02 0.02 0.01 0.01 0.02 0.01 0.01 0.00 0.00 0.00 0.00 0.00 0.00 0.00 0.00 0.00 0.00 0.00 0.00 0.00 0.00 0.00 0.00 0.00 0.00 0.00 0.00 0.00 0.01 0.01 0.01 0.01 0.00 0.00 0.01 0.02
0.01 0.01 0.01 0.01 0.00 0.01 0.01 0.01 0.01 0.01 0.01 0.01 0.01 0.01 0.01 0.00 0.00 0.00 0.00 0.00 0.00 0.00 0.00 0.00 0.00 0.00 0.00 0.00 0.00 0.00 0.00 0.00 0.00 0.00 0.00 0.00 0.00 0.01 0.01 0.00 0.00 0.00 0.01
0.01 0.01 0.01 0.01 0.01 0.01 0.01 0.01 0.02 0.02 0.01 0.01 0.01 0.01 0.01 0.00 0.00 0.00 0.00 0.00 0.00 0.00 0.00 0.00 0.00 0.00 0.00 0.00 0.00 0.00 0.00 0.00 0.00 0.00 0.00 0.00 0.00 0.00 0.00 0.00 0.00 0.01 0.01
0.01 0.01 0.01 0.01 0.02 0.02 0.02 0.02 0.01 0.01 0.01 0.01 0.01 0.00 0.01 0.00 0.00 0.00 0.00 0.00 0.00 0.00 0.00 0.00 0.00 0.00 0.00 0.00 0.00 0.00 0.00 0.00 0.00 0.00 0.00 0.00 0.00 0.00 0.00 0.01 0.01 0.00 0.00
0.01 0.01 0.01 0.01 0.01 0.01 0.01 0.01 0.01 0.01 0.01 0.01 0.00 0.00 0.00 0.00 0.00 0.00 0.00 0.00 0.00 0.00 0.00 0.00 0.00 0.00 0.00 0.00 0.00 0.00 0.00 0.00 0.00 0.00 0.01 0.00 0.00 0.01 0.01 0.01 0.01 0.00 0.00
0.01 0.01 0.01 0.01 0.02 0.01 0.01 0.01 0.01 0.01 0.01 0.01 0.01 0.00 0.00 0.00 0.01 0.01 0.00 0.00 0.00 0.00 0.00 0.00 0.00 0.00 0.00 0.00 0.00 0.00 0.00 0.00 0.00 0.01 0.01 0.00 0.01 0.01 0.01 0.01 0.01 0.01 0.00
0.02 0.01 0.01 0.01 0.02 0.02 0.02 0.02 0.01 0.01 0.01 0.01 0.01 0.01 0.00 0.00 0.01 0.01 0.02 0.01 0.01 0.01 0.01 0.01 0.01 0.00 0.00 0.00 0.00 0.00 0.00 0.00 0.00 0.00 0.00 0.01 0.01 0.01 0.01 0.00 0.01 0.00 0.00
0.01 0.02 0.01 0.01 0.02 0.02 0.02 0.02 0.02 0.01 0.01 0.01 0.01 0.01 0.01 0.01 0.01 0.01 0.01 0.02 0.02 0.02 0.01 0.01 0.01 0.00 0.00 0.00 0.00 0.00 0.00 0.00 0.00 0.00 0.00 0.00 0.01 0.01 0.01 0.01 0.01 0.00 0.00
0.01 0.01 0.01 0.01 0.01 0.02 0.02 0.01 0.01 0.01 0.01 0.01 0.01 0.01 0.01 0.02 0.02 0.01 0.01 0.01 0.03 0.04 0.03 0.02 0.02 0.01 0.01 0.00 0.00 0.00 0.00 0.00 0.00 0.00 0.00 0.00 0.00 0.00 0.00 0.00 0.00 0.00 0.00
0.01 0.01 0.01 0.01 0.01 0.01 0.01 0.01 0.01 0.01 0.01 0.02 0.01 0.01 0.01 0.01 0.02 0.02 0.02 0.01 0.02 0.03 0.05 0.04 0.03 0.02 0.02 0.01 0.01 0.00 0.00 0.01 0.00 0.00 0.00 0.00 0.00 0.00 0.00 0.00 0.00 0.00 0.00
0.01 0.01 0.01 0.01 0.01 0.01 0.01 0.01 0.01 0.01 0.01 0.01 0.01 0.01 0.01 0.01 0.02 0.03 0.03 0.03 0.03 0.04 0.04 0.05 0.06 0.06 0.04 0.02 0.02 0.01 0.01 0.01 0.00 0.00 0.00 0.00 0.00 0.00 0.00 0.00 0.00 0.00 0.00
0.01 0.01 0.01 0.02 0.01 0.01 0.01 0.01 0.01 0.01 0.01 0.01 0.01 0.01 0.01 0.01 0.02 0.03 0.03 0.03 0.04 0.05 0.06 0.06 0.06 0.05 0.04 0.03 0.02 0.02 0.01 0.00 0.00 0.00 0.00 0.00 0.00 0.00 0.00 0.00 0.00 0.00 0.00
0.01 0.01 0.01 0.02 0.02 0.02 0.02 0.01 0.01 0.02 0.01 0.01 0.01 0.01 0.01 0.01 0.01 0.01 0.01 0.02 0.02 0.03 0.04 0.04 0.04 0.04 0.03 0.02 0.02 0.01 0.01 0.00 0.00 0.00 0.00 0.00 0.00 0.00 0.00 0.00 0.00 0.00 0.00
0.01 0.01 0.01 0.02 0.02 0.02 0.03 0.03 0.02 0.03 0.03 0.02 0.02 0.01 0.01 0.01 0.02 0.02 0.01 0.01 0.01 0.02 0.02 0.02 0.02 0.03 0.03 0.02 0.02 0.01 0.00 0.00 0.00 0.00 0.00 0.00 0.00 0.00 0.00 0.00 0.00 0.00 0.00
0.01 0.01 0.02 0.02 0.03 0.03 0.03 0.04 0.04 0.03 0.03 0.03 0.03 0.03 0.03 0.03 0.02 0.01 0.01 0.01 0.02 0.02 0.02 0.02 0.02 0.02 0.02 0.02 0.01 0.01 0.00 0.00 0.00 0.00 0.00 0.00 0.00 0.00 0.00 0.00 0.00 0.00 0.00
0.01 0.01 0.02 0.03 0.04 0.04 0.04 0.04 0.04 0.04 0.04 0.03 0.03 0.03 0.03 0.02 0.02 0.01 0.01 0.01 0.01 0.01 0.02 0.02 0.02 0.01 0.01 0.01 0.01 0.01 0.01 0.00 0.00 0.00 0.00 0.00 0.00 0.00 0.00 0.00 0.00 0.00 0.00
0.01 0.01 0.02 0.02 0.02 0.03 0.04 0.05 0.05 0.04 0.04 0.04 0.03 0.02 0.02 0.02 0.02 0.02 0.01 0.01 0.01 0.01 0.01 0.01 0.01 0.01 0.01 0.01 0.01 0.01 0.01 0.01 0.01 0.01 0.01 0.00 0.00 0.00 0.00 0.00 0.00 0.00 0.00
0.02 0.02 0.02 0.03 0.03 0.03 0.04 0.06 0.08 0.07 0.05 0.04 0.03 0.02 0.01 0.01 0.02 0.02 0.02 0.02 0.02 0.02 0.03 0.03 0.02 0.01 0.01 0.01 0.01 0.01 0.01 0.01 0.01 0.01 0.01 0.01 0.01 0.00 0.00 0.00 0.00 0.00 0.00
0.02 0.02 0.03 0.03 0.05 0.06 0.05 0.05 0.04 0.06 0.07 0.05 0.03 0.03 0.02 0.01 0.01 0.02 0.02 0.03 0.03 0.03 0.03 0.02 0.02 0.01 0.01 0.01 0.01 0.01 0.01 0.01 0.01 0.00 0.00 0.00 0.00 0.00 0.01 0.01 0.01 0.01 0.01
0.01 0.01 0.01 0.01 0.02 0.02 0.02 0.02 0.02 0.02 0.03 0.04 0.04 0.03 0.03 0.02 0.02 0.02 0.02 0.02 0.02 0.01 0.01 0.01 0.01 0.01 0.01 0.01 0.01 0.01 0.00 0.00 0.00 0.00 0.00 0.00 0.00 0.00 0.00 0.01 0.01 0.01 0.01
0.01 0.01 0.01 0.00 0.00 0.01 0.01 0.01 0.01 0.01 0.01 0.01 0.02 0.03 0.02 0.02 0.02 0.02 0.02 0.02 0.02 0.02 0.01 0.01 0.01 0.01 0.01 0.00 0.00 0.00 0.00 0.00 0.00 0.00 0.00 0.00 0.00 0.00 0.00 0.01 0.01 0.01 0.01
0.01 0.01 0.01 0.01 0.00 0.00 0.01 0.01 0.02 0.02 0.01 0.01 0.01 0.01 0.01 0.01 0.01 0.01 0.01 0.02 0.01 0.01 0.01 0.01 0.01 0.01 0.00 0.00 0.00 0.00 0.00 0.00 0.00 0.00 0.00 0.00 0.00 0.00 0.00 0.00 0.00 0.01 0.01
0.00 0.00 0.00 0.01 0.01 0.01 0.01 0.01 0.01 0.01 0.01 0.00 0.00 0.00 0.00 0.00 0.01 0.01 0.01 0.01 0.01 0.01 0.01 0.01 0.01 0.01 0.01 0.01 0.00 0.00 0.00 0.00 0.00 0.00 0.00 0.00 0.00 0.00 0.00 0.00 0.01 0.01 0.01
0.00 0.00 0.00 0.00 0.01 0.01 0.03 0.03 0.01 0.00 0.00 0.00 0.00 0.00 0.00 0.01 0.01 0.01 0.01 0.02 0.01 0.01 0.01 0.01 0.01 0.01 0.01 0.01 0.01 0.01 0.00 0.00 0.00 0.00 0.00 0.00 0.00 0.00 0.00 0.01 0.01 0.01 0.01
0.00 0.00 0.00 0.00 0.00 0.00 0.02 0.03 0.01 0.00 0.00 0.00 0.00 0.00 0.00 0.00 0.01 0.01 0.01 0.01 0.01 0.01 0.01 0.01 0.01 0.01 0.01 0.01 0.01 0.01 0.01 0.01 0.00 0.01 0.01 0.00 0.00 0.00 0.01 0.01 0.01 0.01 0.01
MSLP
1017.58 1017.83 1018.05 1018.20 1018.28 1018.29 1018.25 1018.19 1018.15 1018.17 1018.25 1018.42 1018.63 1018.87 1019.10 1019.30 1019.45 1019.53 1019.57 1019.59 1019.61 1019.66 1019.73 1019.85 1019.98 1020.12 1020.23 1020.31 1020.33 1020.30 1020.24 1020.16 1020.08 1020.02 1019.99 1019.99 1020.02 1020.06 1020.10 1020.13 1020.14 1020.14 1020.13
1017.33 1017.55 1017.72 1017.82 1017.86 1017.84 1017.78 1017.72 1017.70 1017.74 1017.85 1018.04 1018.28 1018.55 1018.81 1019.03 1019.19 1019.30 1019.37 1019.41 1019.45 1019.51 1019.60 1019.72 1019.86 1019.99 1020.11 1020.19 1020.22 1020.21 1020.16 1020.09 1020.03 1019.98 1019.95 1019.96 1019.97 1020.00 1020.01 1020.00 1019.97 1019.92 1019.85
1017.18 1017.34 1017.45 1017.49 1017.47 1017.41 1017.31 1017.24 1017.21 1017.26 1017.39 1017.60 1017.86 1018.15 1018.42 1018.66 1018.85 1018.98 1019.06 1019.12 1019.18 1019.26 1019.36 1019.49 1019.63 1019.78 1019.90 1019.99 1020.04 1020.04 1020.02 1019.97 1019.93 1019.90 1019.90 1019.90 1019.92 1019.92 1019.91 1019.86 1019.78 1019.66 1019.52
1017.14 1017.24 1017.28 1017.25 1017.15 1017.02 1016.88 1016.77 1016.72 1016.76 1016.89 1017.11 1017.38 1017.68 1017.97 1018.21 1018.41 1018.55 1018.65 1018.72 1018.79 1018.87 1018.98 1019.11 1019.26 1019.40 1019.53 1019.63 1019.69 1019.71 1019.71 1019.69 1019.68 1019.68 1019.70 1019.72 1019.74 1019.74 1019.71 1019.63 1019.50 1019.32 1019.12
1017.24 1017.27 1017.23 1017.12 1016.94 1016.73 1016.52 1016.36 1016.28 1016.30 1016.42 1016.63 1016.90 1017.19 1017.47 1017.72 1017.91 1018.04 1018.14 1018.20 1018.26 1018.34 1018.43 1018.55 1018.69 1018.82 1018.94 1019.04 1019.10 1019.14 1019.15 1019.16 1019.18 1019.21 1019.25 1019.30 1019.34 1019.35 1019.32 1019.24 1019.09 1018.88 1018.62
1017.49 1017.46 1017.34 1017.13 1016.87 1016.57 1016.30 1016.08 1015.95 1015.94 1016.03 1016.22 1016.47 1016.74 1017.00 1017.23 1017.39 1017.51 1017.57 1017.61 1017.65 1017.69 1017.75 1017.84 1017.94 1018.05 1018.15 1018.22 1018.27 1018.31 1018.33 1018.35 1018.39 1018.45 1018.52 1018.60 1018.68 1018.72 1018.72 1018.65 1018.52 1018.31 1018.05
1017.90 1017.81 1017.61 1017.32 1016.97 1016.60 1016.26 1015.98 1015.81 1015.75 1015.81 1015.96 1016.18 1016.41 1016.64 1016.82 1016.94 1017.01 1017.03 1017.02 1017.00 1016.99 1017.00 1017.03 1017.08 1017.14 1017.19 1017.23 1017.26 1017.27 1017.28 1017.31 1017.36 1017.43 1017.53 1017.64 1017.75 1017.84 1017.88 1017.86 1017.77 1017.61 1017.38
1018.47 1018.31 1018.06 1017.70 1017.29 1016.85 1016.45 1016.12 1015.91 1015.81 1015.82 1015.93 1016.10 1016.29 1016.45 1016.57 1016.63 1016.63 1016.58 1016.50 1016.41 1016.33 1016.27 1016.24 1016.22 1016.21 1016.21 1016.20 1016.18 1016.15 1016.14 1016.14 1016.18 1016.25 1016.35 1016.48 1016.63 1016.76 1016.85 1016.90 1016.88 1016.79 1016.63
1019.15 1018.96 1018.66 1018.26 1017.81 1017.33 1016.89 1016.53 1016.28 1016.14 1016.12 1016.18 1016.29 1016.41 1016.51 1016.56 1016.54 1016.46 1016.32 1016.16 1015.99 1015.83 1015.69 1015.57 1015.48 1015.41 1015.33 1015.26 1015.19 1015.11 1015.05 1015.01 1015.01 1015.05 1015.14 1015.27 1015.42 1015.57 1015.71 1015.81 1015.86 1015.85 1015.78
1019.91 1019.71 1019.39 1018.97 1018.50 1018.01 1017.56 1017.19 1016.92 1016.75 1016.69 1016.71 1016.76 1016.82 1016.83 1016.80 1016.69 1016.52 1016.30 1016.05 1015.80 1015.56 1015.34 1015.15 1014.99 1014.84 1014.71 1014.57 1014.43 1014.30 1014.18 1014.08 1014.01 1014.00 1014.03 1014.12 1014.24 1014.39 1014.53 1014.66 1014.76 1014.82 1014.81
1020.70 1020.50 1020.19 1019.79 1019.33 1018.86 1018.43 1018.06 1017.79 1017.61 1017.52 1017.49 1017.49 1017.47 1017.41 1017.29 1017.10 1016.84 1016.54 1016.21 1015.88 1015.56 1015.28 1015.03 1014.80 1014.60 1014.41 1014.21 1014.01 1013.81 1013.61 1013.44 1013.29 1013.19 1013.14 1013.14 1013.20 1013.29 1013.40 1013.51 1013.62 1013.69 1013.73
1021.47 1021.29 1021.01 1020.65 1020.23 1019.81 1019.42 1019.08 1018.82 1018.64 1018.53 1018.46 1018.40 1018.32 1018.18 1017.98 1017.71 1017.38 1017.00 1016.61 1016.21 1015.84 1015.51 1015.20 1014.93 1014.68 1014.44 1014.20 1013.94 1013.67 1013.40 1013.13 1012.89 1012.68 1012.51 1012.40 1012.34 1012.33 1012.36 1012.41 1012.47 1012.53 1012.57
1022.17 1022.03 1021.80 1021.50 1021.15 1020.80 1020.46 1020.17 1019.94 1019.77 1019.64 1019.54 1019.42 1019.28 1019.07 1018.80 1018.46 1018.07 1017.63 1017.18 1016.74 1016.33 1015.96 1015.62 1015.32 1015.04 1014.76 1014.47 1014.16 1013.83 1013.48 1013.12 1012.77 1012.44 1012.15 1011.90 1011.70 1011.56 1011.46 1011.41 1011.38 1011.37 1011.36
1022.79 1022.69 1022.53 1022.30 1022.04 1021.76 1021.49 1021.25 1021.06 1020.89 1020.75 1020.61 1020.45 1020.24 1019.98 1019.64 1019.25 1018.80 1018.33 1017.84 1017.37 1016.94 1016.54 1016.18 1015.85 1015.54 1015.23 1014.91 1014.56 1014.17 1013.75 1013.31 1012.86 1012.41 1011.99 1011.60 1011.26 1010.97 1010.73 1010.54 1010.40 1010.28 1010.20
1023.31 1023.27 1023.18 1023.03 1022.85 1022.65 1022.45 1022.26 1022.09 1021.93 1021.77 1021.60 1021.39 1021.13 1020.80 1020.42 1019.98 1019.50 1018.99 1018.48 1018.00 1017.54 1017.13 1016.75 1016.41 1016.07 1015.74 1015.38 1014.99 1014.55 1014.07 1013.56 1013.02 1012.48 1011.94 1011.43 1010.96 1010.54 1010.17 1009.85 1009.58 1009.35 1009.16
1023.76 1023.78 1023.75 1023.68 1023.58 1023.45 1023.31 1023.15 1023.00 1022.83 1022.64 1022.42 1022.16 1021.85 1021.48 1021.05 1020.58 1020.07 1019.55 1019.03 1018.53 1018.07 1017.64 1017.25 1016.88 1016.52 1016.15 1015.76 1015.33 1014.85 1014.33 1013.76 1013.16 1012.54 1011.93 1011.33 1010.76 1010.23 1009.75 1009.33 1008.95 1008.62 1008.33
1024.15 1024.22 1024.26 1024.26 1024.22 1024.14 1024.04 1023.91 1023.75 1023.56 1023.33 1023.07 1022.76 1022.39 1021.98 1021.52 1021.02 1020.50 1019.97 1019.44 1018.94 1018.46 1018.02 1017.60 1017.20 1016.81 1016.41 1015.98 1015.51 1014.99 1014.43 1013.82 1013.19 1012.53 1011.87 1011.22 1010.59 1010.00 1009.46 1008.96 1008.51 1008.09 1007.72
1024.52 1024.64 1024.73 1024.77 1024.78 1024.74 1024.66 1024.52 1024.35 1024.12 1023.85 1023.54 1023.17 1022.76 1022.31 1021.83 1021.31 1020.78 1020.25 1019.73 1019.22 1018.73 1018.27 1017.82 1017.39 1016.95 1016.50 1016.02 1015.51 1014.96 1014.36 1013.73 1013.07 1012.40 1011.72 1011.06 1010.41 1009.80 1009.23 1008.69 1008.20 1007.73 1007.31
1024.89 1025.04 1025.16 1025.24 1025.28 1025.25 1025.17 1025.02 1024.81 1024.55 1024.23 1023.86 1023.45 1023.00 1022.52 1022.02 1021.50 1020.97 1020.44 1019.92 1019.41 1018.92 1018.43 1017.95 1017.47 1016.98 1016.48 1015.95 1015.38 1014.79 1014.16 1013.51 1012.84 1012.16 1011.48 1010.82 1010.18 1009.57 1008.99 1008.45 1007.94 1007.45 1006.99
1025.25 1025.42 1025.57 1025.67 1025.72 1025.69 1025.60 1025.43 1025.18 1024.87 1024.50 1024.09 1023.64 1023.16 1022.67 1022.16 1021.64 1021.12 1020.61 1020.10 1019.59 1019.08 1018.57 1018.05 1017.52 1016.98 1016.41 1015.82 1015.20 1014.56 1013.89 1013.21 1012.53 1011.84 1011.16 1010.50 1009.87 1009.27 1008.70 1008.16 1007.64 1007.15 1006.67
1025.58 1025.77 1025.94 1026.05 1026.10 1026.07 1025.95 1025.75 1025.47 1025.13 1024.72 1024.27 1023.80 1023.30 1022.80 1022.30 1021.80 1021.30 1020.80 1020.30 1019.79 1019.28 1018.74 1018.19 1017.61 1017.01 1016.38 1015.72 1015.04 1014.34 1013.63 1012.91 1012.19 1011.48 1010.79 1010.12 1009.49 1008.88 1008.30 1007.75 1007.22 1006.71 1006.22
1025.88 1026.09 1026.26 1026.38 1026.42 1026.38 1026.25 1026.03 1025.72 1025.34 1024.91 1024.45 1023.96 1023.46 1022.97 1022.48 1022.01 1021.53 1021.05 1020.57 1020.07 1019.54 1018.99 1018.40 1017.77 1017.11 1016.42 1015.70 1014.95 1014.19 1013.43 1012.65 1011.89 1011.14 1010.41 1009.71 1009.04 1008.39 1007.78 1007.20 1006.65 1006.11 1005.59
1026.12 1026.34 1026.52 1026.64 1026.68 1026.63 1026.49 1026.25 1025.94 1025.55 1025.11 1024.64 1024.16 1023.68 1023.20 1022.74 1022.29 1021.84 1021.38 1020.91 1020.41 1019.87 1019.29 1018.67 1018.00 1017.29 1016.55 1015.76 1014.96 1014.13 1013.30 1012.47 1011.65 1010.84 1010.05 1009.29 1008.55 1007.85 1007.18 1006.54 1005.93 1005.35 1004.79
1026.30 1026.53 1026.71 1026.84 1026.88 1026.83 1026.69 1026.45 1026.13 1025.75 1025.32 1024.87 1024.40 1023.94 1023.49 1023.05 1022.62 1022.19 1021.75 1021.28 1020.78 1020.23 1019.63 1018.98 1018.27 1017.51 1016.71 1015.88 1015.02 1014.14 1013.25 1012.35 1011.47 1010.59 1009.73 1008.89 1008.08 1007.30 1006.55 1005.84 1005.16 1004.51 1003.90
1026.43 1026.67 1026.86 1026.99 1027.03 1026.99 1026.85 1026.62 1026.32 1025.95 1025.55 1025.11 1024.68 1024.24 1023.82 1023.40 1022.99 1022.57 1022.13 1021.65 1021.14 1020.57 1019.94 1019.25 1018.51 1017.71 1016.87 1015.99 1015.08 1014.15 1013.21 1012.27 1011.32 1010.38 1009.46 1008.54 1007.65 1006.79 1005.96 1005.17 1004.42 1003.71 1003.06
1026.54 1026.78 1026.98 1027.11 1027.16 1027.12 1026.99 1026.78 1026.49 1026.15 1025.77 1025.37 1024.96 1024.55 1024.15 1023.75 1023.34 1022.92 1022.46 1021.97 1021.43 1020.83 1020.16 1019.44 1018.65 1017.82 1016.94 1016.02 1015.08 1014.12 1013.15 1012.16 1011.18 1010.19 1009.21 1008.25 1007.30 1006.37 1005.48 1004.62 1003.81 1003.06 1002.37
Thickness
5701 5700 5699 5698 5698 5697 5696 5695 5695 5695 5694 5693 5692 5690 5688 5687 5686 5684 5682 5681 5679 5677 5676 5675 5673 5671 5669 5667 5665 5663 5660 5657 5652 5650 5650 5650 5650 5650 5650 5649 5649 5649 5648
5701 5699 5698 5697 5696 5695 5694 5694 5693 5693 5692 5691 5689 5687 5686 5684 5682 5681 5679 5677 5676 5674 5672 5670 5668 5667 5665 5663 5661 5658 5656 5654 5650 5646 5646 5645 5645 5644 5644 5643 5643 5642 5642
5700 5697 5696 5694 5694 5693 5692 5692 5691 5690 5689 5688 5687 5685 5683 5681 5680 5678 5676 5674 5672 5670 5669 5667 5665 5663 5661 5659 5657 5654 5652 5651 5647 5643 5640 5639 5638 5638 5638 5637 5637 5636 5636
5699 5696 5694 5693 5693 5692 5691 5690 5689 5688 5686 5685 5684 5683 5681 5679 5677 5676 5673 5671 5669 5667 5665 5664 5662 5660 5658 5656 5653 5650 5648 5645 5642 5639 5635 5633 5632 5632 5630 5629 5629 5628 5628
5697 5695 5694 5693 5692 5691 5689 5688 5687 5686 5685 5683 5682 5680 5678 5677 5675 5673 5671 5668 5665 5663 5662 5660 5659 5657 5656 5653 5651 5647 5644 5641 5637 5633 5630 5628 5627 5625 5624 5622 5621 5621 5621
5696 5694 5693 5692 5690 5689 5688 5686 5684 5683 5682 5680 5679 5677 5676 5675 5674 5672 5669 5665 5662 5659 5657 5656 5655 5654 5652 5650 5648 5645 5642 5638 5633 5629 5626 5624 5623 5621 5619 5617 5614 5614 5614
5694 5693 5691 5690 5688 5687 5686 5683 5681 5680 5678 5677 5676 5674 5673 5672 5671 5669 5667 5662 5659 5656 5654 5652 5651 5650 5647 5645 5643 5641 5638 5636 5633 5628 5624 5622 5620 5618 5615 5612 5609 5607 5606
5692 5691 5689 5688 5686 5684 5683 5681 5678 5677 5675 5673 5672 5672 5670 5669 5668 5666 5663 5659 5655 5653 5650 5648 5646 5644 5643 5640 5637 5634 5632 5630 5628 5625 5622 5619 5617 5614 5611 5608 5605 5602 5601
5690 5689 5688 5686 5684 5682 5680 5678 5675 5673 5671 5670 5669 5668 5666 5666 5665 5663 5659 5654 5651 5649 5647 5644 5642 5640 5639 5636 5632 5629 5626 5624 5622 5620 5617 5615 5612 5609 5606 5602 5599 5596 5595
5689 5688 5686 5684 5682 5680 5678 5675 5673 5671 5668 5667 5665 5664 5663 5661 5661 5659 5656 5651 5647 5644 5642 5640 5639 5636 5634 5631 5627 5624 5620 5618 5616 5614 5612 5609 5606 5603 5601 5598 5594 5591 5588
5689 5686 5684 5682 5680 5678 5675 5672 5669 5667 5664 5662 5660 5659 5658 5657 5656 5655 5652 5647 5644 5641 5638 5635 5634 5632 5629 5626 5623 5619 5617 5614 5610 5607 5604 5602 5599 5597 5595 5592 5589 5586 5583
5686 5683 5681 5679 5677 5675 5671 5668 5665 5662 5659 5656 5654 5653 5652 5652 5651 5650 5648 5645 5642 5638 5635 5632 5630 5627 5624 5621 5618 5615 5612 5608 5604 5600 5597 5594 5592 5590 5589 5586 5584 5582 5580
5682 5679 5677 5675 5673 5670 5667 5663 5660 5657 5654 5652 5650 5648 5647 5646 5645 5645 5643 5640 5638 5634 5631 5629 5625 5622 5618 5615 5612 5609 5605 5601 5597 5593 5591 5588 5586 5584 5582 5580 5578 5576 5574
5677 5674 5672 5669 5667 5665 5663 5659 5656 5653 5650 5649 5646 5644 5642 5640 5639 5638 5636 5634 5632 5628 5625 5622 5619 5615 5611 5608 5605 5602 5598 5594 5591 5587 5585 5582 5579 5577 5575 5573 5571 5569 5567
5673 5670 5667 5664 5661 5659 5656 5654 5653 5652 5651 5647 5645 5643 5639 5637 5637 5635 5632 5629 5626 5622 5618 5613 5610 5606 5603 5600 5597 5594 5591 5587 5584 5580 5577 5575 5573 5570 5568 5566 5563 5560 5558
5667 5664 5662 5658 5655 5652 5649 5646 5646 5646 5645 5644 5643 5640 5638 5637 5634 5630 5628 5625 5621 5617 5611 5606 5603 5600 5597 5594 5590 5587 5584 5581 5577 5574 5571 5568 5566 5563 5561 5558 5554 5551 5550
5663 5659 5656 5653 5650 5647 5644 5641 5638 5637 5637 5636 5635 5633 5632 5630 5627 5624 5621 5617 5613 5609 5604 5601 5598 5594 5591 5588 5584 5581 5577 5574 5571 5567 5564 5561 5559 5556 5553 5550 5547 5544 5542
5657 5654 5651 5648 5645 5641 5638 5636 5633 5630 5628 5626 5626 5625 5623 5621 5619 5616 5612 5607 5602 5600 5597 5594 5591 5588 5584 5581 5577 5574 5571 5567 5563 5560 5556 5553 5550 5547 5545 5542 5539 5535 5533
5650 5647 5644 5641 5638 5635 5632 5629 5626 5624 5622 5619 5617 5616 5615 5612 5609 5606 5602 5598 5595 5592 5589 5586 5583 5580 5577 5573 5570 5566 5563 5559 5556 5552 5548 5545 5542 5538 5536 5533 5530 5527 5524
5643 5642 5638 5634 5630 5627 5624 5621 5619 5616 5614 5612 5610 5608 5605 5601 5597 5595 5592 5589 5587 5584 5581 5578 5575 5572 5569 5566 5562 5559 5555 5552 5548 5544 5541 5538 5534 5531 5528 5525 5521 5518 5515
5636 5633 5631 5627 5624 5621 5618 5615 5613 5610 5607 5604 5603 5600 5597 5594 5591 5587 5584 5581 5579 5576 5574 5570 5567 5564 5561 5557 5554 5551 5548 5544 5540 5537 5533 5530 5526 5523 5520 5516 5513 5509 5506
5628 5625 5622 5619 5617 5614 5611 5609 5606 5603 5600 5597 5593 5591 5588 5585 5581 5578 5576 5573 5571 5568 5565 5562 5558 5555 5552 5549 5546 5542 5539 5536 5532 5529 5525 5522 5518 5515 5511 5508 5504 5501 5498
5620 5617 5614 5611 5608 5606 5603 5600 5597 5594 5591 5588 5585 5581 5578 5575 5572 5570 5567 5564 5562 5559 5556 5553 5550 5546 5543 5540 5537 5533 5530 5527 5524 5520 5516 5513 5510 5506 5503 5499 5495 5492 5489
5611 5608 5605 5602 5599 5596 5593 5590 5587 5585 5582 5578 5575 5572 5568 5565 5563 5560 5558 5555 5552 5550 5547 5544 5540 5537 5534 5531 5527 5524 5520 5517 5514 5510 5507 5504 5501 5497 5493 5490 5487 5483 5480
5601 5599 5596 5593 5590 5587 5584 5581 5578 5575 5572 5569 5566 5562 5559 5555 5553 5551 5548 5545 5542 5540 5537 5534 5530 5527 5524 5521 5517 5514 5511 5508 5504 5501 5497 5494 5491 5487 5483 5480 5477 5473 5470
5591 5589 5586 5583 5580 5577 5574 5571 5568 5565 5562 5559 5556 5553 5549 5546 5544 5541 5538 5535 5532 5530 5527 5523 5520 5517 5514 5511 5508 5504 5501 5498 5495 5491 5487 5484 5480 5477 5473 5470 5467 5463 5460